Weather in Kintanovo

Russia / Yaroslavl Oblast     58°22′18″N   40°57′05″E
temp.,
°C
wind,
m/s
gust,
m/s
humid.,
%
clouds,
%
prec.,
mm/h
press.,
hPa
HPBL,
m
18 september, sat
sat1800:00+5n378558 0.1 1022705
03:00+5nnw2687100 0.1 1023265
06:00+5n3888100 0.0 1024441
09:00+6nne4664100 0.0 10251177
12:00+8ne344756 0.0 10251421
15:00+10nne344668 0.0 10251569
18:00+6nne26666 0.0 1026160
21:00+2ne28815 0.0 1027188
19 september, sun
sun1900:00+1ne22815 0.0 102818
03:00+1ne23844 0.0 102855
06:000ne25899 0.0 1028104
09:00+5ene2467100 0.0 1028487
12:00+8ene3451100 0.0 10281177
15:00+9ene3548100 0.0 10261352
18:00+6ne266997 0.0 1026126
21:00+3ne51277100 0.0 1027465
20 september, mon
mon2000:00+1ene41281100 0.0 1028452
03:000ene41182100 0.0 1028459
06:000ene4128292 0.0 1028464
09:00+3ene51063100 0.0 1028886
12:00+7e5850100 0.0 10271237
15:00+7e5852100 0.0 10261259
18:00+6ene4106084 0.0 1026727
21:00+4ene4127268 0.0 1026564
21 september, tue
tue2100:00+4ene4127198 0.0 1025583
03:00+4ene5127278 0.0 1024573
06:00+3ene51372100 0.0 1022566
09:00+5ene51266100 0.0 1021806
12:00+5ene51185100 0.4 1020971
15:00+4ene61394100 1.8 1019826
18:00+4ene51394100 0.6 1018887
21:00+5ene51294100 2.8 1018784
22 september, wed
wed2200:00+5ene41193100 1.5 1017673
03:00+5ene41191100 1.6 1016618
06:00+5ene51294100 1.6 1015609
09:00+5ene51291100 4.4 1014721
12:00+6ene41293100 3.4 1014728
15:00+6ene41193100 4.8 1014867
18:00+6ene41295100 2.7 1014769
21:00+6ne41195100 5.6 1013527